The Shenzhou 7 spacecraft carrying the three crew members was launched 25 September 2008, by a Long March 2F (CZ-2F) rocket which lifted off from the Jiuquan Satellite Launch Centre at 21:10 CST.Read more
The Shenzhou 7 spacecraft carrying the three crew members was launched 25 September 2008, by a Long March 2F (CZ-2F) rocket which lifted off from the Jiuquan Satellite Launch Centre at 21:10 CST.
SZ7 MODULE1 33394U 08047H 09352.18082870 .00321924 63156-4 21826-3 0 25802 33394 042.4023 267.7559 0012326 231.7606 128.2246 16.15695288 71407